Погода в Бакнине

Вьетнам     21°10′59″N   106°04′11″E
темп.,
°C
ветер,
м/с
пор.,
м/с
влажн.,
%
обл.,
%
осадки,
мм/ч
давл.,
гПа
погр.,
м
5 декабря, вс
вс501:00+16св115660 0.0 102311
04:00+15с226029 0.0 102226
07:00+14с236016 0.0 102469
10:00+21с344067 0.0 1025617
13:00+24с23305 0.0 10201588
16:00+25в132818 0.0 10191774
19:00+21всв114014 0.0 102113
22:00+18ююв235473 0.0 102149
6 декабря, пн
пн601:00+17вюв0058100 0.0 102111
04:00+16ссв226011 0.0 102012
07:00+15ссв345811 0.0 102284
10:00+22ссв353927 0.0 1023736
13:00+25в34235 0.0 10191890
16:00+25вюв33235 0.0 10181425
19:00+20вюв48385 0.0 1020167
22:00+17ююв11515 0.0 102111
7 декабря, вт
вт701:00+16с11540 0.0 102112
04:00+14с22520 0.0 102122
07:00+14ссв22490 0.0 102245
10:00+20с22340 0.0 1023525
13:00+24вюв11260 0.0 10191377
16:00+24ююв22250 0.0 10181527
19:00+19юв48430 0.0 1020227
22:00+18ююв22590 0.0 102146
8 декабря, ср
ср801:00+16в01590 0.0 102011
04:00+15ссв225938 0.0 102121
07:00+16с235998 0.0 1022106
10:00+18ссз2348100 0.0 1024245
13:00+20ссз2244100 0.0 1021357
16:00+20сз1149100 0.0 1020105
19:00+19зюз1150100 0.0 102111
22:00+19ссз1152100 0.0 102221
9 декабря, чт
чт901:00+19ссз2256100 0.0 102152
04:00+19с2359100 0.0 102193
07:00+19с2458100 0.0 102291
10:00+21ссз2348100 0.0 1024474
13:00+21сз234886 0.0 1020607
16:00+23в114534 0.0 1019886
19:00+19ююз22576 0.0 102018
22:00+18юв22630 0.0 102113